STARLINK-32551 (62166 NORAD) Tracking and Keplerian Element Data

This shows tracking and keplerian element data for the satellite.

Feedback or suggestion? Click here.




ElementValue
Catalog62166
NameSTARLINK-32551
Epoch Orbit587
Epoch Day34.83335648
Epoch Year2025
RAAN90.4541
Inclination69.9992
Eccentricity0.0003262
Argument of Perigee274.0263
Mean Anonmoly20.2485
Mean Motion15.22182524
Decay Rate-0.01402076
L11 62166U 24225D 25034.83335648 -.01402076 00000+0 -67223-1 0 9992
L22 62166 69.9992 90.4541 0003262 274.0263 20.2485 15.22182524 5870



Live tracking and technical data element details for STARLINK-32551 (NORAD 62166). STARLINK-32551 can be tracked NOW for your location showing map with azimuth and elevation plus other details from your city location.







IsCatalogInMostPopularTable: catalog: 62166, numindb: 7
Update: records affected: 1



GetName: 62166 STARLINK-32551

Hit Count: updated at: Mon, 19 May 2025 01:49:22 GMT